Wind_Speed
9 20 28 27 23 21 20 22 26 29 33 29 27 27 29 31 34 40 38 37 34 33 33 34 34 30 32 30 28 27 25 19 17 12 8 7 8 9 12 13 13 14 12
9 11 20 23 24 26 26 23 23 26 33 34 34 29 32 27 37 39 38 37 38 35 36 36 34 35 34 33 33 33 27 18 20 9 4 1 5 11 12 14 15 14 13
13 12 9 18 20 21 24 25 23 19 25 35 34 27 22 27 21 29 35 39 39 39 38 39 38 37 37 38 38 37 31 22 21 14 6 2 4 3 8 12 14 15 14
7 7 8 13 16 20 20 21 25 23 20 26 31 31 27 24 26 33 41 41 40 40 41 41 42 40 39 39 41 39 34 25 20 19 19 8 4 3 1 6 12 13 14
6 8 7 11 16 15 14 16 16 20 19 19 29 32 28 27 30 29 33 35 40 41 41 41 42 42 41 40 41 40 37 31 26 21 12 13 9 6 2 2 5 10 12
9 10 14 19 25 20 17 10 11 14 15 19 23 30 35 32 29 29 30 33 37 39 40 40 43 42 41 41 41 40 37 32 25 25 16 13 7 7 5 2 4 5 10
9 9 12 14 25 25 19 15 12 11 9 12 17 21 29 30 35 35 34 32 34 37 42 41 41 41 41 40 39 37 34 30 25 24 20 15 10 8 9 8 3 3 3
7 8 9 14 21 25 22 17 14 15 12 11 11 12 17 25 31 33 34 36 37 37 39 42 41 43 42 37 32 31 29 26 23 20 17 14 11 6 8 5 6 1 2
8 8 9 15 22 25 26 18 18 19 19 17 15 16 17 19 25 29 31 34 34 33 32 37 40 37 36 33 29 28 27 24 20 18 15 13 8 6 4 4 5 3 3
8 8 6 14 21 22 22 17 15 18 21 23 21 20 19 18 22 26 28 29 28 27 26 28 29 30 28 26 28 27 25 23 21 17 15 11 10 6 4 2 2 4 3
8 7 6 16 19 20 22 15 18 20 22 21 19 18 17 15 16 19 21 21 20 20 21 23 24 25 26 26 27 26 24 22 19 16 13 11 8 7 4 1 1 7 9
7 8 9 15 20 21 20 14 15 16 16 16 16 12 9 7 8 9 12 13 15 16 18 21 23 23 24 24 25 25 22 20 17 14 12 10 6 3 3 5 10 14 12
10 9 9 8 14 17 16 16 16 16 16 14 10 8 4 1 4 6 9 13 16 18 20 23 25 26 27 28 26 25 21 18 14 12 9 6 3 4 7 9 13 12 12
8 7 6 8 14 15 16 16 16 15 13 10 8 5 6 5 8 12 15 15 18 22 23 24 26 28 28 27 24 20 17 13 10 7 4 2 3 4 9 8 7 10 13
12 12 9 6 12 15 15 15 15 12 10 12 15 16 16 17 19 21 22 22 24 25 26 29 29 29 26 21 20 18 16 12 7 4 3 3 4 5 5 7 8 9 11
9 9 8 7 10 15 15 15 13 11 10 15 19 19 20 23 24 25 25 25 27 27 30 31 29 26 23 18 16 12 10 6 4 5 1 1 1 3 4 8 9 10 15
8 6 6 6 11 12 10 11 11 10 13 14 15 17 19 23 24 23 23 27 31 31 30 27 24 24 20 16 13 10 9 6 5 4 1 2 3 5 8 9 9 10 12
5 5 6 8 11 10 10 10 11 12 13 11 12 13 18 22 24 26 26 26 29 28 26 24 21 19 16 14 12 12 9 6 5 3 2 5 8 10 11 12 14 14 14
3 4 6 8 11 13 10 12 12 12 12 15 15 14 18 20 25 24 23 23 25 25 23 20 18 16 14 9 8 7 6 3 4 3 4 9 12 12 12 13 14 14 15
5 5 6 7 10 9 8 10 12 15 14 16 17 16 19 22 24 22 22 22 22 23 19 19 16 11 10 6 6 1 2 2 2 5 10 10 10 11 12 13 15 15 20
5 6 7 8 7 8 9 13 14 13 13 16 17 19 21 22 21 20 19 18 19 17 16 17 14 13 10 10 8 6 5 5 6 9 10 12 11 12 13 14 14 14 16
7 7 8 9 9 8 13 14 13 11 17 20 21 20 19 19 19 18 15 14 16 17 16 15 12 9 5 5 6 6 5 6 10 10 11 11 12 12 11 11 11 11 13
7 6 8 10 10 10 13 16 12 16 17 18 18 18 16 14 13 14 14 14 12 12 11 9 8 7 6 6 6 8 8 9 8 8 7 11 12 11 10 9 10 9 11
9 8 7 9 11 13 13 14 14 15 17 18 16 15 15 15 14 14 12 12 10 10 9 8 7 7 7 6 6 8 10 8 10 8 10 10 8 8 9 11 12 12 12
10 10 10 10 12 12 12 13 13 14 16 16 14 14 14 14 15 15 12 11 11 9 7 6 4 3 5 6 7 9 10 9 10 8 11 11 13 14 15 16 15 16 15
13 12 13 13 12 14 12 10 12 13 15 14 13 12 12 12 11 13 14 11 10 8 8 6 5 4 4 6 7 10 10 10 10 10 11 13 13 14 16 18 19 19 18
Wind_Direction
270 267 273 272 260 254 255 248 238 235 234 222 211 215 222 225 227 238 237 236 235 232 226 227 224 224 220 219 217 208 205 201 198 179 194 207 216 210 206 206 203 200 204
278 267 265 264 261 256 253 250 241 236 233 227 224 213 221 227 230 235 238 237 234 231 227 226 224 224 222 219 216 210 200 200 196 182 139 198 235 219 211 212 213 213 212
299 296 288 282 279 265 255 248 243 241 234 230 226 215 220 226 223 224 235 237 234 232 228 229 226 224 224 221 216 210 210 192 198 197 175 112 222 154 209 217 218 220 219
334 324 315 307 303 290 281 262 251 246 234 226 222 217 216 215 221 225 237 236 234 232 229 229 229 226 223 222 218 212 211 209 198 207 222 219 161 168 192 212 216 220 222
332 343 341 352 4 340 301 282 256 237 237 230 224 228 224 229 231 238 236 234 235 230 229 229 230 226 224 222 219 214 212 215 214 200 187 210 204 202 142 175 205 210 215
352 359 1 6 10 11 12 330 287 256 240 236 231 227 232 232 230 228 230 235 236 230 227 226 228 227 225 223 221 218 216 216 220 213 206 192 176 189 170 130 209 188 207
6 358 359 352 352 353 354 357 351 323 300 260 246 239 237 238 239 236 228 224 229 226 228 226 223 224 228 225 221 217 216 216 216 211 208 208 209 185 192 155 156 161 222
349 352 341 342 343 344 338 333 333 322 318 308 288 267 255 244 243 246 242 238 237 237 230 226 222 221 220 221 217 214 214 212 210 206 202 192 183 199 171 161 162 133 226
336 339 333 347 344 341 333 324 325 320 316 311 301 291 279 263 253 251 248 246 244 240 235 227 218 216 214 213 210 204 201 201 193 183 175 167 173 174 198 186 189 191 173
310 331 327 337 338 335 327 323 327 332 329 321 311 304 294 282 264 255 248 242 240 236 227 216 212 208 203 199 193 190 189 181 171 169 164 152 152 158 147 172 215 247 204
335 313 312 323 326 326 340 323 332 330 326 325 317 307 303 292 262 251 247 239 232 219 212 205 199 194 185 186 185 179 170 163 157 152 152 148 152 141 144 135 257 284 267
316 319 319 326 334 338 344 340 338 341 339 333 325 319 312 290 253 242 237 229 210 200 193 184 179 171 170 171 166 158 153 150 144 140 135 129 130 132 204 260 277 257 253
344 335 324 343 356 7 11 7 1 357 354 348 340 344 6 327 165 176 191 188 178 173 165 165 162 160 161 156 153 148 145 143 144 141 146 145 189 252 280 262 249 267 275
335 310 351 7 10 19 24 22 22 15 11 9 25 31 65 108 132 140 137 140 137 139 137 141 143 144 141 138 137 137 136 131 130 130 132 183 287 300 265 264 275 287 283
0 12 0 358 12 25 25 31 36 38 54 68 73 71 83 94 96 99 106 117 119 122 129 129 129 128 127 130 134 137 137 138 133 112 66 21 253 255 267 287 293 280 277
350 5 348 6 23 29 32 36 40 52 69 81 73 81 87 94 95 98 101 111 113 115 121 120 124 121 121 131 131 129 121 110 86 51 343 323 230 260 287 294 291 283 284
355 3 343 29 37 35 30 35 32 44 62 71 94 102 106 103 104 110 117 116 117 124 122 120 122 115 112 113 115 104 87 80 101 98 321 271 290 319 318 309 299 294 296
5 9 4 40 56 50 39 40 39 52 61 64 78 91 100 100 108 113 115 114 119 118 114 112 111 114 106 101 98 95 96 95 58 56 321 326 331 326 321 315 311 309 305
52 44 44 53 64 60 57 64 59 56 63 62 66 75 90 94 108 111 112 112 111 110 107 105 101 99 99 104 114 95 77 63 28 356 328 324 324 328 321 313 315 316 308
53 56 58 65 76 85 97 85 74 78 72 79 85 100 111 111 109 112 113 115 113 106 105 101 101 111 115 114 75 90 54 34 335 318 327 336 325 321 319 328 326 324 319
59 60 68 67 71 89 99 84 87 81 98 104 107 107 109 113 116 114 111 106 97 101 109 108 105 100 101 85 83 60 22 0 338 333 338 339 332 328 328 318 316 315 318
73 70 75 73 81 96 107 95 86 98 104 105 104 105 108 110 111 108 107 110 120 116 111 105 93 87 83 60 54 39 19 354 342 338 337 337 331 326 324 319 322 320 312
95 94 95 91 89 107 117 108 113 117 111 107 105 107 106 105 107 109 110 105 105 104 100 95 87 74 60 62 44 22 2 346 337 334 330 335 334 334 334 337 327 321 320
116 121 120 109 101 116 118 119 125 125 123 116 112 110 105 101 97 95 94 96 96 98 95 87 72 53 39 46 25 7 354 352 347 329 336 336 338 343 342 342 344 342 340
138 129 121 117 121 127 128 133 134 135 124 118 116 114 110 105 100 89 79 78 74 69 85 86 64 42 27 15 354 349 348 348 348 333 343 357 358 355 353 350 348 345 344
152 139 137 137 144 142 142 145 148 147 136 127 122 117 110 104 101 102 100 85 89 92 75 60 31 29 358 352 353 350 350 351 351 346 352 349 350 345 343 343 339 339 341
Height
750 750 751 752 753 755 755 755 757 760 764 766 768 771 772 774 777 778 782 786 789 794 798 801 805 808 810 813 817 819 823 825 828 832 833 834 834 835 836 837 838 838 840
748 746 745 746 746 748 749 750 750 753 757 758 760 761 764 767 768 770 775 779 783 787 791 794 797 802 805 808 811 814 817 821 825 827 830 834 835 833 833 835 836 837 836
750 745 744 742 742 742 743 744 745 747 749 752 755 756 760 762 765 767 768 770 774 779 783 787 791 794 798 800 804 807 812 815 821 823 825 832 831 830 831 832 834 835 835
752 747 742 739 737 736 737 738 739 741 743 747 749 749 751 753 755 756 759 761 765 770 774 778 783 786 789 793 798 802 806 811 812 818 820 821 821 826 831 830 831 832 833
754 748 743 739 737 733 733 734 734 735 737 739 742 744 746 748 750 753 754 757 758 761 765 770 775 779 783 786 791 795 800 803 806 809 812 816 818 819 822 827 828 829 830
751 746 741 738 735 734 732 732 733 733 734 735 736 737 739 741 743 745 748 749 752 755 757 761 766 772 776 778 783 788 794 798 802 804 807 809 812 814 816 819 824 822 825
751 748 744 740 736 734 733 733 732 731 732 732 732 733 735 737 737 737 739 742 744 747 749 752 758 764 770 772 777 783 788 794 798 799 802 805 808 808 813 812 818 819 822
753 750 746 743 740 737 735 733 732 730 731 731 731 731 732 732 733 734 735 735 736 737 742 746 749 754 759 769 773 779 785 791 794 797 800 802 805 813 809 811 816 820 820
752 749 746 743 740 737 734 734 732 730 729 729 728 728 729 728 728 728 730 731 733 734 737 740 744 749 755 762 770 775 781 787 791 794 799 801 805 805 811 812 812 817 820
752 749 746 743 740 737 734 732 731 730 728 725 724 723 722 723 724 724 725 726 728 731 735 738 743 748 753 760 766 771 779 783 789 793 795 800 802 807 807 809 814 817 817
752 749 745 742 739 736 734 731 730 728 726 724 722 719 718 718 719 720 722 723 726 729 733 738 742 748 752 759 765 771 777 783 788 792 794 798 803 803 808 809 808 815 815
752 747 743 740 737 735 732 731 729 728 726 723 722 718 716 717 718 718 721 723 726 729 732 737 743 748 754 761 767 774 780 786 790 793 795 798 801 804 806 806 808 813 812
751 749 746 744 740 738 735 732 730 728 725 723 723 721 719 720 718 720 723 725 726 730 733 737 743 749 755 760 768 775 782 785 789 792 796 797 800 801 802 806 807 808 808
757 751 747 747 744 741 737 735 733 730 728 728 726 726 723 723 723 724 724 729 731 733 737 742 747 752 759 765 772 777 783 788 791 793 795 796 799 799 802 803 802 804 806
754 752 753 751 748 744 743 740 737 735 734 732 729 730 730 728 729 729 730 734 736 738 742 746 754 759 765 771 775 780 784 788 791 793 795 796 797 798 799 800 799 800 800
758 758 757 754 752 750 749 746 743 742 739 736 734 734 734 732 734 735 738 741 742 746 750 754 759 765 770 777 780 783 786 789 790 791 796 798 798 798 796 798 798 798 797
759 760 760 755 753 753 752 750 750 748 745 743 741 740 739 737 738 740 744 746 748 752 757 760 766 769 776 780 782 784 786 790 792 789 795 799 798 795 794 795 795 794 794
762 762 760 757 754 755 754 754 754 752 751 751 747 745 744 744 745 746 749 754 753 756 761 766 770 775 778 782 785 784 786 788 790 792 797 798 795 794 793 793 792 790 790
763 763 761 760 757 757 757 757 757 757 756 755 753 753 751 752 752 753 758 761 762 765 767 772 775 778 782 785 784 787 788 791 792 795 797 796 793 792 791 789 787 786 785
764 763 763 763 761 759 759 759 760 760 760 759 759 759 759 759 760 764 766 769 769 769 773 775 778 782 786 788 787 789 790 793 794 795 794 793 791 790 788 786 784 783 781
765 765 764 765 765 763 762 763 763 763 764 763 763 764 765 767 769 771 772 773 773 776 779 780 783 784 787 789 790 790 790 792 792 792 791 790 788 787 785 784 782 780 778
766 766 767 768 767 767 766 767 768 768 768 768 769 771 773 775 776 776 778 780 781 783 784 785 786 788 789 790 791 791 792 792 791 790 789 788 786 784 782 780 778 777 775
767 768 769 770 770 771 771 772 773 773 773 774 776 778 779 780 781 782 783 784 785 785 786 787 788 790 791 790 790 790 791 790 790 789 787 785 783 780 778 777 775 772 770
768 770 771 772 772 774 774 775 777 778 779 780 781 783 783 784 785 785 786 786 787 788 788 789 790 790 790 791 791 791 790 789 788 785 784 782 780 778 777 775 773 771 768
768 770 772 773 774 776 777 778 779 781 782 783 784 786 786 787 788 788 789 789 789 790 790 791 792 792 792 791 791 790 789 787 786 783 781 779 777 775 774 772 770 768 766
769 771 772 775 777 778 779 781 782 784 784 785 787 788 788 789 789 790 791 793 793 793 793 793 792 792 792 791 790 789 788 786 784 782 780 778 777 775 772 770 767 765 763